Terminal Aerodrome Forecast
Issued by NWS

Home | Current Version | Previous Version | Text Only | Print | Product List | Glossary On
Versions: 1 2 3 4 5 6 7 8 9 10 11 12 13 14 15 16 17 18 19 20 21 22 23 24 25 26 27 28 29 30 31 32 33 34 35 36 37 38 39 40 41 42 43 44 45 46 47 48 49 50
000
FTUS44 KHGX 032334
TAFLBX
TAF
KLBX 032334Z 0400/0424 36010KT P6SM VCSH BKN007 OVC011
      TEMPO 0400/0404 6SM -TSRA BR OVC005CB
     FM040400 01009KT 6SM -TSRA BR OVC005CB
     FM041200 02011KT 6SM -SHRA BR OVC005=

USA.gov is the U.S. government's official web portal to all federal, state and local government web resources and services.